Погода в Карабутаке

Хотите узнать прогноз погоды в Карабутаке? Тогда Вам сюда: Погода в Карабутаке

Поиск расширенной информации на нашем сайте:

Полезная информация:

Новости сайта



02.01.2020
Опубликован Долгосрочный прогноз погоды по городам России и ближнего зарубежья на январь 2020 года.
Карты: Прогноз на январь и февраль 2020 года, Сравнение прогнозируемой аномалии приземной температуры воздуха на январь 2020 года по разным моделям.




Погода в Карабутаке - сегодня

Время (UTC), дата Ветер
(°,м/с) 
Видим.   Явления Облачность Т
(°С)
Тd
(°С)
f(%) Тe
(°С)
Pmin
(гПа)
dP
(гПа)
Po
(мм)
O2
(г/м3)
Тmin Tmax R s Состояние
почвы
12 22.10.21 240 (ЮЗ) 20000 м    8/0 средняя, верхняя 
[Ac cast|Ci]
+9.6 +3.7 67 +8  1016.7  0.2  742  288           
15 22.10.21 240 (ЮЗ) н/о    6/0 средняя, верхняя 
[Ac cast|Cc]
+5.3 +1.8 78 +4  1018  0.9  742  293    +10.5     
18 22.10.21 230 (ЮЗ) н/о    9/0 верхняя 
[Cc]
+9.2 +2.1 61 +8  1018.8  1.2  743  289    +10.5     
21 22.10.21 250 (З) 10{16}  н/о    5/0 средняя, верхняя 
[Ac trans|Ci ing]
+8.8 +3 67 +6  1019.2  0.3  743  290           
00 23.10.21 190 (Ю) н/о    ясно 
+6.4 +3.6 82 +5  1020.2  0.7  744  292           
03 23.10.21 210 (ЮЗ) 20000 м    ясно 
+6.1 +4.3 88 +5  1020.7  0.5  744  293  +5.3         
06 23.10.21 220 (ЮЗ) 20000 м    5/5 600 м кучево-дожд. 
[Cb calv]
+10.7 +6.9 77 +9  1021.4  1.2  745  288  +5.3         
09 23.10.21 230 (ЮЗ) 20000 м    3/3 1000 м средняя 
[Cu med, cong|Ac lent]
+15 +8 63 +14  1020.7  -0.3  745  283           
12 23.10.21 230 (ЮЗ) 7{17}  20000 м    3/3 1000 м 
[Cu med, cong]
+14.7 +7.7 63 +14  1021.7  746  284           
15 23.10.21 220 (ЮЗ) н/о    ясно 
+11.1 +7.2 77 +10  1022.8  0.6  746  288    +16.3       
18 23.10.21 200 (Ю) н/о    ясно 
+7.9 +6.4 90 +7  1023.4  0.3  746  291    +16.3       
21 23.10.21 180 (Ю) н/о    3/0 средняя 
[Ac lent]
+6.6 +4.8 88 +5  1023.7  0.1  747  293           
00 24.10.21 170 (Ю) н/о    ясно 
+4.2 +1.4 82 +3  1023.6  -0.3  746  296           
03 24.10.21 190 (Ю) 20000 м    ясно 
+1.3 +0.2 92 1023.3  -0.6  746  299           
06 24.10.21 190 (Ю) 20000 м    3/0 средняя 
[Ac lent]
+8.1 +0.3 58 +6  1021.7  -0.8  745  292  +1.2         
09 24.10.21 200 (Ю) 20000 м    1/0 верхняя 
[Ci fib]
+14.7 -2.5 30 +13  1019.4  -1.7  744  285           
12 24.10.21 200 (Ю) 20000 м    3/0 верхняя 
[Ci fib]
+15.6 -3.2 27 +15  1018.2  -1.1  743  284           
15 24.10.21 190 (Ю) н/о    3/0 верхняя 
[Ci fib]
+8.8 -3.1 43 +8  1019.2  0.4  743  291    +16.2       
18 24.10.21 190 (Ю) н/о    ясно 
+4.9 -2.7 58 +2  1018.7  -0.9  743  294    +16.2       
21 24.10.21 180 (Ю) н/о    ясно 
+3.1 -0.1 79 +2  1017.8  -1.1  742  296           
00 25.10.21 220 (ЮЗ) н/о    ясно 
+2.4 +0 84 +2  1017  -0.8  741  296           
03 25.10.21 230 (ЮЗ) 20000 м    4/0 верхняя 
[Cc]
+0.6 -1.4 86 1016.3  -0.9  741  298           
06 25.10.21 180 (Ю) 20000 м    9/0 верхняя 
[Cc]
+4.8 +0.7 75 +4  1015.6  -0.2  741  293  -0.8         
09 25.10.21 180 (Ю) 20000 м    9/0 верхняя 
[Cc]
+12.1 -1.7 38 +11  1012.7  -2.2  739  285           
12 25.10.21 200 (Ю) 20000 м    9/4 600 м верхняя 
[Sc|Ci ing]
+14 -2.9 31 +14  1011.3  -1.1  738  283           
Время (UTC), дата Ветер
(°,м/с) 
Видим.   Явления Облачность Т
(°С)
Тd
(°С)
f(%) Тe
(°С)
Pmin
(гПа)
dP
(гПа)
Po
(мм)
O2
(г/м3)
Тmin Tmax R s Состояние
почвы

Для получения пояснительной информации подведите курсор к названию столбца.

ПОГОДА в Карабутаке - архив

Всё, что Вы хотите узнать о погоде в Карабутаке - удобно и подробно!

Выберите нужную дату (начиная с 1 января 2019* года) и нажмите кнопку "Найти".
Будут отображены архивные сводки погоды по пункту Карабутак, начиная с указанной даты.


Отображать данные в формате CSV (для использования в таблицах Excel)


Внимание! Наш архив погоды предназначен исключительно для личного некоммерческого использования в познавательных целях. Если Вам необходимы официальные справки о состоянии погоды (для производственных, юридических, коммерческих и т.п. целей), обращайтесь в органы Росгидромета.

*Примечание: данная дата относится к архиву по метеостанциям СССР (Россия, СНГ, Балтия).
Архив по метеостанциям Зарубежной Европы и Азии (кроме Китая) хранится 10 дней, по другим регионам земного шара (Китай, Африка, Америка, Австралия, Океания) - 1 день.

Карабутак - район местоположения метеостанции


Название, широта, долгота, высота метеостанции:
Карабутак 49.9°ш. 60.1°д. 229 м над ур. моря [Казахстан]

Дополнительная информация

В oтличие oт бoльшинства пoгoдных сайтoв мы публикуем пoдрoбную метеoинфoрмацию в детальнoм прoфессиoнальнoм фoрмате.

Характеристики температуры и влажнoсти вoздуха измеряются на высoте 2 м в тени вдали oт зданий и деревьев.
Скoрoсть ветра измеряется на высoте 10 м (на урoвне рoста челoвека скoрoсть ветра ниже в 1.5-2 раза). Если метеoстанция нахoдится в гoрoде или в лесу, тo скoрoсть ветра занижена на 2-4 м/с пo сравнению с oткрытым местoм. Скoрoсть ветра над акватoриями крупных рек и oзёр, а также на вершинах хoлмoв на 2-5 м/с выше, чем в oбычных услoвиях.
Атмoсфернoе давление в разных тoчках местнoсти мoжет значительнo oтличаться oт давления на метеoстанции, в зависимoсти oт услoвий рельефа (при пoдъёме на 10 м давление пoнижается примернo на 1 мм рт.ст.).